Starlink 11449

operational
NORAD ID: 63012 Int'l Des: 2025-032 Owner: SPXS Country: US Constellation: starlink
LEOCIRCULAR

Über Starlink 11449

Beschreibung wird geladen...

Live-Position

3D-Globus wird geladen...

Nächste Überflüge

Höhenverlauf

Altitude vs Time

uPlot chart will show altitude changes over time

Zweizeiliger Elementsatz

1 63012U 25032H 25306.00922370 .00245521 00000-0 18563-2 0 9997
2 63012 42.9997 244.8954 0003254 294.2780 65.7747 15.70896497 42138
Epoch: 2. Nov. 2025 • Age: 39 hours

Aktueller Status

Höhe 354.7 km
Geschwindigkeit 7.70 km/s
Subsatellitenpunkt 8.44°N, 136.85°E
Startdatum 15. Feb. 2025
Alter 0.7 years
Typ internet

Technische Details

Klassifizierung Payload
Masse 960.00 kg
Trockenmasse 910.00 kg
Gesamtmasse 960.00 kg
Länge 0.30 m
Durchmesser 4.10 m
Spannweite 29.00 m
Form Box + pan
Hersteller SPXS
Bus-Typ Starlink V2MD
Phasenstatus In Orbit
Besitzer/Staat SPXS/US

Große Konstellationen

Loading constellations...